Volver al catálogo

SL-8 R/B

ActivoPO
NORAD 7095·ROCKET BODY·🇷🇺 Russia

Lanzado Jan 17, 1974 desde Plesetsk Cosmodrome

Loading…

Próximos Pases (próximas 24 horas)

TLE

ActualizadoSource: Space-Track

Época: Sep 14, 2026, 09:01 UTC

1 07095U 74001B   26257.37627466  .00000069  00000-0  52182-4 0  9993
2 07095  82.9485  41.7859 0037351  13.1283 347.0838 13.79071127647817

Sigue SL-8 R/B en tiempo real con AllMySat

Download on the App Store